Location: ???????
(54.9567°N, 38.2836°E)
Time: 05:24:08
(UTC+00:00)

GP-B - Pass Details

Date: 14 April 2024
Orbit: 624 x 629 km, 89.8° (Epoch: 22 May)

Event Time Altitude Azimuth Distance (km) Brightness Sun altitude
Rises 00:34:07 0° 358° (N) 2,936 7.2 -14.6°
Reaches altitude 10° 00:36:22 10° 355° (N) 2,023 6.2 -14.4°
Maximum altitude 00:40:44 61° 276° (W) 718 3.1 -13.9°
Enters shadow 00:44:03 17° 199° (SSW) 1,599 4.7 -13.6°
